Location: Miles
(41.4492°N, 81.6087°W)
Time: 23:23:25
(UTC+00:00)

Courier 1B Rocket - Pass Details

Date: 15 September 2024
Orbit: 920 x 1201 km, 28.2° (Epoch: 09 October)

Event Time Altitude Azimuth Distance (km) Brightness Sun altitude
Rises 23:14:56 0° 249° (WSW) 3,757 9.6 2.9°
Reaches altitude 10° 23:17:57 10° 238° (WSW) 2,852 8.5 2.3°
Maximum altitude 23:23:43 28° 182° (S) 1,928 6.6 1.2°
Drops below altitude 10° 23:29:48 10° 127° (SE) 3,021 7.1 0.1°
Sets 23:33:06 0° 116° (ESE) 4,020 7.6 -0.5°
